Change the Weather History Date:

Tuesday, December 10, 2013

  Actual Average Record
Temperature  
Mean Temperature 30 °F 44 °F  
Max Temperature 46 °F 58 °F 74 °F (1975)
Min Temperature 14 °F 30 °F 12 °F (1956)
Degree Days  
Heating Degree Days 35    
Month to date heating degree days 253  
Since 1 July heating degree days 904  
Cooling Degree Days 0    
Month to date cooling degree days 0  
Year to date cooling degree days 2204  
Moisture  
Dew Point 5 °F    
Average Humidity 42    
Maximum Humidity 67    
Minimum Humidity 16    
Precipitation  
Precipitation 0.00 in 0.03 in 0.31 in (2009)
Month to date precipitation 0.08 0.28  
Year to date precipitation 2.70 6.51  
Since 1 July precipitation 1.60 1.60  
Snow  
Snow 0.00 in - T in (1985)
Month to date snowfall 0.0  
Since 1 July snowfall 0.0  
Snow Depth -    
Sea Level Pressure  
Sea Level Pressure 30.39 in    
Wind  
Wind Speed 4 mph (West)    
Max Wind Speed 8 mph    
Max Gust Speed 9 mph    
Visibility 10 miles    
Events      
T = Trace of Precipitation, MM = Missing Value Source: NWS Daily Summary

Daily Weather History Graph

Daily Weather History Graph

Search for Another Location

Airport or City:

Trip Planner

Search our weather history database for the weather conditions in past years. The results will help you decide how hot, cold, wet, or windy it might be!

Date:

Astronomy

Dec. 10, 2013 Rise Set
Actual Time 6:49 AM PST 4:42 PM PST
Civil Twilight 6:21 AM PST 5:10 PM PST
Nautical Twilight 5:50 AM PST 5:41 PM PST
Astronomical Twilight 5:19 AM PST 6:12 PM PST
Moon 12:33 PM PST (12/10) 12:26 AM PST (12/10)
Length of Visible Light 10h 48m
Length of Day
9h 52m
Waxing Gibbous, 63% of the Moon is Illuminated
Dec 10
Waxing Gibbous
Dec 17
Full
Dec 25
Last Quarter
Jan 1
New
Jan 7
First Quarter

Hourly Weather History & Observations

Time (PST) Temp. Windchill Dew Point Humidity Pressure Visibility Wind Dir Wind Speed Gust Speed Precip Events Conditions
12:56 AM 19.9 °F 12.1 °F 3.9 °F 50% 30.51 in 10.0 mi West 5.8 mph - N/A   Clear
1:56 AM 18.0 °F 9.8 °F 5.0 °F 57% 30.49 in 10.0 mi West 5.8 mph - N/A   Clear
2:56 AM 19.0 °F 13.9 °F 5.0 °F 54% 30.48 in 10.0 mi WNW 3.5 mph - N/A   Clear
4:56 AM 14.0 °F 8.2 °F 5.0 °F 67% 30.47 in - West 3.5 mph - N/A   Unknown
5:56 AM 16.0 °F 8.8 °F 5.0 °F 62% 30.47 in - WSW 4.6 mph - N/A   Clear
6:56 AM 15.1 °F 9.4 °F 6.1 °F 68% 30.48 in - WSW 3.5 mph - N/A   Clear
7:56 AM 19.9 °F - 8.1 °F 60% 30.49 in 10.0 mi Calm Calm - N/A   Clear
8:56 AM 28.0 °F - 7.0 °F 41% 30.47 in 10.0 mi Calm Calm - N/A   Clear
9:56 AM 34.0 °F - 1.9 °F 26% 30.45 in 10.0 mi Calm Calm - N/A   Clear
10:56 AM 37.9 °F 34.4 °F 5.0 °F 25% 30.43 in 10.0 mi SSE 4.6 mph - N/A   Clear
11:56 AM 39.9 °F - 3.0 °F 21% 30.38 in - North - - N/A   Clear
12:56 PM 42.1 °F 37.7 °F 1.9 °F 19% 30.34 in 10.0 mi East 6.9 mph - N/A   Clear
1:56 PM 45.0 °F 43.5 °F 3.0 °F 18% 30.31 in 10.0 mi East 3.5 mph - N/A   Clear
2:56 PM 45.0 °F - 1.9 °F 17% 30.30 in 10.0 mi Calm Calm - N/A   Clear
3:56 PM 45.0 °F - 1.0 °F 16% 30.28 in 10.0 mi Calm Calm - N/A   Clear
4:56 PM 42.1 °F - 3.0 °F 20% 30.29 in 10.0 mi Calm Calm - N/A   Clear
5:56 PM 30.0 °F 22.4 °F 8.1 °F 40% 30.31 in 10.0 mi West 8.1 mph - N/A   Clear
6:56 PM 27.0 °F 21.6 °F 8.1 °F 45% 30.33 in 10.0 mi WNW 4.6 mph - N/A   Clear
7:56 PM 26.1 °F 20.5 °F 8.1 °F 47% 30.34 in 10.0 mi West 4.6 mph - N/A   Clear
8:56 PM 24.1 °F 16.0 °F 8.1 °F 51% 30.33 in 10.0 mi West 6.9 mph - N/A   Clear
9:56 PM 21.9 °F 17.2 °F 8.1 °F 55% 30.34 in 10.0 mi WNW 3.5 mph - N/A   Clear
10:56 PM 19.9 °F 11.1 °F 10.0 °F 65% 30.34 in 10.0 mi WNW 6.9 mph - N/A   Clear
11:56 PM 21.0 °F - 9.0 °F 60% 30.32 in 10.0 mi North - - N/A   Clear